Theta_e
337 338 338 339 339 340 340 340 341 341 341 342 342 342 343 344 344 344 344 344 344 344 344 344 344 343 343 344 343 343 339 335 339 341 335 326 321 322 320 320 320 320 321 321 321 322 323 324 326 328 330 332 335 336 337 338 338 339 339 340 340 341 341 341 342 342 342 341 341 339 337 334 332 330 331 332 334 335 339 342 342 341 340 339 339
338 338 339 339 338 339 340 340 341 341 342 342 342 343 344 345 345 345 345 345 345 344 344 344 344 344 343 343 344 344 341 341 342 343 339 328 320 321 320 320 320 320 321 322 323 325 327 329 331 333 335 336 337 337 338 338 338 338 339 339 340 340 341 342 342 342 340 339 336 334 331 328 326 326 326 328 331 335 338 338 334 329 328 327 327
337 338 338 338 339 340 341 342 342 342 342 341 341 343 344 345 345 345 345 345 345 345 344 344 344 344 344 344 345 345 345 346 345 344 341 330 322 321 320 320 321 322 324 326 328 329 331 332 332 333 334 335 335 335 336 336 337 337 338 339 340 341 342 343 342 341 337 334 333 331 330 328 327 327 327 327 328 329 328 327 324 323 323 323 324
338 337 338 339 340 342 343 344 344 344 342 341 341 343 344 344 345 345 345 345 345 345 344 344 344 344 345 344 344 344 344 344 343 345 342 332 326 321 321 324 324 327 328 329 330 330 329 330 330 330 331 333 333 334 335 336 337 338 339 339 340 341 342 342 341 337 335 334 334 334 333 332 332 332 332 332 330 330 330 329 329 328 329 331 331
340 338 338 341 342 342 343 343 344 344 342 340 341 344 345 345 345 345 345 345 345 345 344 344 344 345 345 344 343 343 344 343 341 346 343 335 330 324 325 330 329 329 331 331 331 328 326 327 329 330 332 334 335 335 336 336 337 336 336 337 336 337 337 337 336 335 333 334 334 335 335 335 335 336 336 336 335 335 335 334 334 335 336 337 335
341 339 339 340 341 342 342 343 343 343 342 341 343 346 347 347 347 346 345 346 345 345 345 345 344 345 345 344 343 343 344 343 342 346 343 337 335 330 331 335 333 331 334 338 340 334 329 327 329 331 333 334 333 333 333 332 332 331 331 330 330 330 331 331 331 331 332 332 333 333 333 333 335 335 335 334 333 333 332 332 333 334 335 336 336
343 342 341 342 342 341 342 342 342 343 344 344 345 346 347 347 347 347 346 346 346 346 346 344 344 346 344 344 345 343 343 343 342 343 342 340 338 335 336 338 338 338 338 342 346 345 340 336 333 332 330 331 331 330 329 328 329 328 329 329 329 329 329 329 329 330 331 332 333 332 332 333 333 333 331 330 330 330 331 332 333 334 335 336 338
343 342 342 343 342 342 342 341 340 344 345 344 344 345 347 347 348 348 347 347 346 346 345 344 344 345 345 344 344 342 341 342 342 341 339 338 335 335 339 342 344 343 341 341 343 346 347 345 343 339 333 328 329 329 328 330 330 331 332 332 333 333 332 332 332 332 333 333 334 333 333 333 333 332 330 329 331 332 333 334 336 337 338 340 341
342 342 342 343 343 341 340 339 341 343 345 344 344 345 347 347 347 347 347 346 347 346 344 344 344 343 342 342 342 342 342 343 342 341 339 338 335 337 342 345 345 342 340 338 339 342 344 345 347 347 341 331 327 331 332 332 334 334 335 337 337 337 337 336 335 334 333 333 333 334 335 335 335 333 332 331 332 333 334 336 337 339 341 343 344
340 343 342 343 343 339 337 339 342 343 344 343 343 344 345 347 347 346 347 348 348 346 346 346 345 344 341 339 342 343 344 343 342 340 341 340 338 341 343 344 344 342 341 338 339 342 341 342 346 347 347 338 329 332 335 335 335 336 338 339 340 340 340 339 338 337 335 333 331 332 333 335 336 336 336 335 333 333 333 335 338 341 343 345 347
336 341 342 342 342 338 337 340 342 343 344 345 344 343 345 347 347 347 347 348 348 346 346 344 344 345 342 339 341 342 344 343 341 341 342 343 340 341 344 344 344 344 343 341 342 344 341 342 345 346 347 345 337 332 335 336 337 337 337 338 339 339 339 339 339 340 339 336 333 331 330 331 333 335 337 339 338 336 334 335 337 340 344 347 348
336 340 342 342 341 339 339 341 342 343 345 346 345 344 346 347 348 347 347 346 346 346 345 341 341 342 340 341 341 341 345 344 342 342 342 343 342 342 344 343 343 344 345 343 343 343 341 341 345 343 342 344 341 335 333 336 335 335 335 335 335 336 336 337 338 338 339 339 338 335 331 329 329 330 334 337 340 339 337 335 335 337 341 345 347
334 339 342 340 339 339 340 341 343 343 345 345 343 343 345 347 346 346 346 346 345 345 344 341 339 338 338 340 341 340 344 346 344 342 342 344 343 342 343 342 341 343 346 346 344 341 339 340 343 342 338 336 336 335 333 335 335 335 334 333 333 334 335 336 337 338 338 338 339 338 336 333 331 329 330 333 336 338 337 335 334 334 337 340 343
338 343 344 342 340 339 340 342 343 342 342 342 342 343 344 345 346 346 346 345 344 342 341 340 338 339 339 340 341 341 343 345 344 342 342 344 344 342 343 342 339 341 344 343 342 339 337 339 339 341 340 335 333 335 336 337 338 338 337 336 336 337 338 338 339 339 340 340 339 339 338 337 336 332 330 331 333 334 334 333 332 332 333 336 339
346 348 346 343 341 341 342 343 343 342 342 341 343 345 346 346 346 345 344 344 343 342 342 342 341 341 341 341 342 343 343 343 342 341 341 343 343 342 342 342 340 341 342 340 338 337 338 338 337 338 339 336 334 335 338 339 341 342 342 342 342 342 342 343 343 343 342 342 342 341 340 339 337 336 334 332 331 331 331 331 330 331 332 333 336
346 347 344 342 342 342 342 342 343 342 341 341 343 345 346 346 345 344 345 345 344 345 346 345 343 342 342 343 343 344 344 344 342 342 342 342 342 343 341 341 340 339 339 339 337 336 338 339 336 337 337 336 337 337 337 339 341 342 343 344 344 345 345 345 345 345 345 344 343 342 341 340 338 337 337 335 333 332 331 331 331 332 333 334 335
344 344 342 341 341 342 342 341 341 342 342 342 343 345 346 345 345 345 345 346 346 347 348 346 343 343 345 345 344 343 344 344 343 343 342 342 342 342 341 340 340 339 338 339 338 338 340 340 336 336 338 339 340 338 337 338 339 340 341 345 346 347 347 347 346 346 346 345 345 343 343 341 339 337 336 336 336 335 333 334 336 338 338 338 338
343 343 342 342 342 341 340 341 341 342 344 346 344 344 346 346 346 346 345 346 347 347 347 345 344 345 347 346 345 346 345 342 342 342 341 342 342 342 341 341 340 340 340 341 339 338 339 340 338 338 340 341 340 339 338 337 337 337 338 341 345 347 349 348 347 346 347 346 345 345 345 343 340 338 337 335 336 336 336 337 339 341 343 343 343
343 343 342 342 342 341 339 340 341 343 346 348 345 343 345 346 347 347 345 345 346 347 347 346 346 347 347 347 346 347 346 343 341 341 340 341 341 341 341 341 341 342 341 341 340 339 339 340 340 340 342 342 341 340 340 339 338 338 338 340 343 346 349 349 347 346 346 347 347 347 347 345 341 337 336 335 334 334 336 338 340 342 344 345 345
344 344 342 342 342 341 340 340 342 344 345 347 346 344 344 346 346 346 345 345 346 346 346 347 347 346 346 346 346 346 347 345 341 340 341 342 342 341 341 341 341 341 342 342 341 341 340 340 341 342 343 341 340 341 341 341 340 339 339 340 341 344 346 347 345 345 347 349 350 349 347 345 340 335 334 334 332 331 332 335 337 340 343 344 345
345 345 343 342 343 343 343 342 342 344 345 346 346 345 344 344 345 346 346 345 345 346 346 347 347 346 345 345 345 344 346 345 343 341 342 343 342 341 341 340 341 342 342 342 342 341 340 340 342 343 343 342 341 341 341 340 340 340 339 339 340 342 343 344 342 344 348 350 351 349 347 345 341 334 331 332 332 330 330 330 332 335 337 340 342
345 344 342 342 342 343 344 344 343 344 346 347 346 344 343 343 343 346 346 345 344 346 347 347 347 347 347 348 346 346 346 346 346 344 344 344 342 341 341 341 341 342 343 343 342 341 340 340 341 342 343 342 342 342 343 342 342 342 339 339 343 345 346 344 341 342 344 348 350 348 346 345 343 338 332 329 330 329 328 328 329 330 331 333 337
344 343 343 342 341 343 344 344 344 345 347 347 346 344 344 343 342 344 345 344 344 346 347 346 346 346 347 347 347 348 348 347 347 346 345 344 344 341 341 341 342 342 342 341 341 341 342 341 342 343 343 343 343 342 343 343 343 342 341 342 346 348 347 346 345 343 342 344 347 347 346 345 345 343 337 330 328 329 328 328 329 329 330 330 332
343 343 343 342 342 344 344 344 345 345 346 347 346 345 345 344 342 343 343 343 343 344 344 344 346 348 347 347 348 347 347 346 346 346 345 344 344 343 342 341 342 343 342 340 341 341 342 343 343 344 343 343 343 343 344 344 344 344 345 346 347 347 347 346 347 344 341 343 345 346 346 346 345 345 340 333 329 328 328 329 329 329 330 329 330
343 344 344 343 344 345 344 345 345 344 344 348 349 348 347 346 344 343 343 342 342 342 342 343 346 348 347 347 347 346 346 346 345 346 346 344 345 346 345 343 343 344 343 343 343 342 341 343 344 344 344 343 343 344 345 343 344 346 347 346 346 346 346 345 345 343 342 344 346 347 346 345 346 344 341 336 331 330 329 328 328 328 329 328 328
344 345 345 344 343 345 345 345 345 344 344 348 351 351 351 348 346 344 343 343 343 342 342 345 347 348 347 347 348 347 347 348 346 345 347 345 346 346 346 346 345 345 346 345 345 344 343 343 343 344 343 341 342 345 345 342 343 347 347 345 344 344 345 346 344 343 344 346 346 346 346 346 345 344 342 340 336 331 329 329 329 328 328 328 327
346 346 346 347 346 345 346 346 344 344 344 346 347 350 352 349 344 344 346 343 342 342 342 345 348 348 348 347 348 348 347 348 348 348 349 348 347 346 347 346 346 345 345 346 347 345 346 346 345 345 343 342 344 345 344 342 345 347 346 343 343 345 347 345 343 343 346 347 347 346 345 346 345 343 341 342 339 335 335 334 333 330 329 327 326
347 348 348 350 349 346 345 345 343 342 342 343 343 345 348 347 344 346 348 345 342 342 341 343 346 348 349 347 346 347 347 348 348 349 349 350 349 349 348 347 347 347 345 344 345 344 345 347 347 347 346 346 347 346 343 344 346 346 345 344 345 347 347 344 343 345 346 346 345 343 343 345 344 342 341 342 341 339 341 341 338 336 334 333 330
348 351 351 351 351 348 345 342 341 341 340 339 340 340 342 343 343 345 347 346 343 342 341 343 346 348 350 350 347 347 346 346 347 347 347 348 348 349 349 348 347 349 348 345 344 343 343 345 344 345 346 345 347 346 346 346 346 346 345 345 347 348 347 345 345 346 346 345 344 343 344 345 342 341 342 342 340 341 344 343 342 341 341 340 339
349 351 351 352 351 349 346 341 339 341 341 339 339 339 339 340 341 344 345 346 346 344 342 343 347 349 351 352 351 349 347 347 347 348 347 347 347 345 347 349 349 350 350 348 345 342 341 342 342 342 343 343 347 349 349 349 348 348 348 347 348 348 347 346 347 347 346 345 344 344 345 343 342 343 343 341 341 342 344 343 343 343 345 344 344
351 352 351 351 350 349 347 346 346 343 340 340 340 339 340 340 341 342 344 344 344 344 343 343 347 351 351 352 352 351 349 349 348 348 348 348 349 345 343 346 347 347 347 345 346 345 344 344 343 342 342 343 347 350 350 350 351 351 350 348 349 349 348 348 348 348 347 346 345 344 343 342 343 343 341 340 342 343 344 344 344 345 346 346 345
353 353 353 350 347 345 345 349 351 347 341 340 340 338 340 340 340 344 347 345 345 345 342 342 346 352 353 353 352 351 349 348 347 347 348 348 348 347 346 345 345 346 346 347 348 350 350 350 346 343 342 344 345 349 349 350 350 350 349 349 350 351 350 350 348 345 344 344 343 341 342 343 344 343 341 342 343 344 345 345 346 347 348 348 347
353 353 353 351 346 343 343 345 347 346 343 341 340 339 340 339 339 343 348 348 348 347 343 342 346 352 354 354 353 350 346 344 343 343 345 346 348 349 348 347 347 348 349 349 350 351 351 351 348 345 345 344 345 347 348 348 349 349 350 351 351 350 349 348 344 339 338 337 339 342 343 343 343 341 341 344 345 344 345 346 348 350 349 347 347
354 352 351 351 349 345 343 341 342 347 348 346 344 343 342 340 339 341 345 349 349 347 345 344 345 348 351 352 351 348 345 343 345 345 345 346 350 350 349 349 350 350 350 350 351 352 350 349 348 347 347 346 346 349 350 351 351 352 352 350 347 345 345 345 342 339 338 336 338 343 344 343 345 345 345 346 347 346 347 349 350 350 349 346 346
353 353 352 351 352 351 347 345 347 351 353 351 350 350 347 344 342 341 343 348 349 347 346 345 344 344 346 349 348 347 347 348 352 353 351 350 350 350 350 351 351 349 350 349 349 349 349 349 349 349 349 348 350 352 351 350 349 349 350 345 342 342 343 344 344 343 343 341 339 342 344 345 348 350 350 349 349 348 349 351 352 351 350 348 348
353 354 353 352 353 354 351 350 350 351 353 353 352 352 351 349 347 345 346 350 350 348 346 345 345 344 345 347 349 351 352 352 354 354 353 352 351 350 350 350 350 349 349 349 350 351 351 351 351 350 351 351 350 351 349 346 344 344 344 342 341 343 344 345 345 346 346 343 340 343 344 345 346 347 348 348 348 350 352 354 355 354 353 351 351
353 354 355 354 353 354 352 351 350 350 351 352 352 351 350 349 348 349 351 351 350 349 349 348 348 348 348 349 351 354 354 353 352 353 353 352 353 352 352 353 352 352 353 353 353 353 353 353 351 350 350 348 346 346 346 345 345 345 344 343 343 345 347 347 346 346 346 342 340 342 342 343 344 345 345 346 348 351 354 355 356 355 355 355 354
353 353 353 354 354 354 353 352 350 349 348 349 349 348 348 349 349 350 351 350 349 349 349 349 349 350 352 352 352 353 354 352 350 351 352 353 352 352 352 352 353 353 353 352 352 352 352 352 352 348 344 342 341 343 346 347 347 347 347 346 344 345 348 349 347 344 342 341 342 342 341 342 344 344 346 347 348 351 353 354 355 356 356 356 356
354 354 353 353 354 354 354 352 349 347 347 346 346 347 348 349 350 351 351 349 349 349 349 349 350 352 354 355 355 354 354 354 352 352 353 353 353 353 353 353 353 353 353 351 349 347 345 345 344 341 338 337 338 343 346 347 347 347 347 347 345 346 348 347 345 342 340 341 341 340 339 342 343 343 345 348 350 350 351 354 355 355 356 356 356
352 353 353 353 353 354 354 352 350 349 348 348 346 346 347 349 350 351 351 351 351 352 351 351 352 353 354 354 354 353 352 352 353 353 353 353 353 354 353 352 351 351 350 347 343 339 337 337 338 339 339 338 338 341 342 342 343 344 344 345 347 348 347 343 341 341 341 342 341 339 339 342 343 342 344 348 350 350 351 353 356 355 355 355 355
349 351 353 353 353 353 353 353 352 351 350 351 350 348 348 349 349 349 349 349 350 350 352 352 351 351 353 353 353 351 350 351 351 352 352 352 351 352 352 351 350 349 345 342 339 338 340 340 341 342 343 343 343 344 344 344 347 347 345 346 346 346 343 341 339 341 343 344 343 342 342 343 345 345 345 348 349 349 350 352 355 355 355 354 354
346 348 350 352 352 353 353 352 352 352 352 352 352 351 350 349 347 347 347 346 347 348 349 350 349 349 351 353 352 350 349 348 349 350 351 350 350 351 352 352 352 348 344 342 341 343 344 344 345 346 347 348 348 349 350 351 351 350 348 347 347 345 344 343 343 343 345 347 347 345 344 346 347 346 347 349 349 348 349 352 353 354 354 353 353
345 345 347 348 349 350 349 350 351 352 352 351 350 351 351 350 349 349 348 348 347 347 346 347 348 348 350 351 351 350 349 348 348 349 349 350 350 351 352 351 350 348 346 345 345 346 347 348 349 349 350 351 352 351 352 352 352 351 349 349 349 348 348 349 348 347 347 348 349 347 346 347 348 348 347 349 349 349 349 351 351 352 353 353 355
344 345 347 348 348 348 348 350 351 351 351 351 351 351 351 351 351 350 350 350 350 349 348 348 348 348 348 349 349 350 349 348 348 347 347 349 348 348 349 348 348 348 349 348 348 348 349 350 351 351 352 353 353 352 352 352 352 351 350 350 350 351 351 351 350 349 348 349 350 349 349 349 349 349 349 348 349 349 349 348 349 350 351 352 354
346 347 347 348 348 348 349 350 350 350 350 351 351 350 350 351 352 351 350 350 351 352 351 349 348 348 348 348 348 348 349 349 348 347 347 347 346 347 348 348 348 348 349 350 350 348 347 348 349 349 351 351 351 351 351 351 352 352 351 351 351 352 352 351 350 350 350 351 351 350 349 349 349 349 349 349 349 348 348 348 348 348 349 351 352
348 347 347 346 347 347 348 348 348 348 349 350 350 349 350 351 351 351 349 349 351 351 349 346 345 346 346 346 346 346 346 347 348 348 348 348 349 349 350 351 350 350 350 350 349 347 347 349 351 351 351 352 351 351 352 352 352 352 352 352 352 351 350 350 351 351 351 351 350 350 349 349 349 349 349 349 348 348 348 348 348 349 350 350 350
347 347 346 345 346 346 347 347 348 348 348 348 347 347 347 348 349 349 348 349 350 349 347 345 344 345 344 344 344 343 342 344 346 348 349 349 350 350 350 351 351 351 352 352 350 348 347 349 351 352 352 352 352 352 353 352 352 352 352 352 352 351 351 350 351 350 350 350 349 349 349 348 348 348 348 347 347 348 348 349 349 349 349 350 350
346 347 346 346 346 345 346 347 349 349 348 347 347 346 346 345 346 347 347 347 348 348 347 345 345 345 345 344 344 343 344 345 346 348 350 350 349 349 349 350 350 352 352 351 349 347 346 348 350 352 352 352 352 352 352 351 351 351 351 351 351 351 350 350 349 349 348 348 348 348 348 348 347 347 346 345 346 346 347 349 349 349 349 349 349
346 347 347 347 347 345 344 346 348 350 349 349 347 347 347 346 346 346 346 347 347 347 345 342 342 343 345 344 345 345 345 346 347 349 349 348 347 346 348 349 349 350 350 349 348 348 348 349 350 350 351 351 350 351 350 350 351 350 351 351 350 349 348 346 345 344 342 343 345 345 345 345 344 342 340 339 339 342 345 346 347 348 348 348 348
344 346 347 347 346 344 342 344 348 349 349 349 348 346 346 347 348 347 347 347 347 346 344 342 341 343 345 346 346 347 347 347 348 349 348 347 346 347 347 347 347 348 348 348 348 348 348 348 348 347 348 348 349 350 350 350 351 351 350 349 347 344 341 337 334 333 331 333 336 336 337 339 338 335 331 329 331 333 336 339 342 344 346 346 346
343 344 346 346 345 343 341 344 347 347 346 347 347 346 345 345 347 348 348 348 346 345 344 344 344 345 347 348 347 347 348 348 348 348 348 348 347 347 347 347 347 347 347 346 345 344 343 343 344 346 347 348 349 350 350 349 348 344 340 338 335 333 329 325 324 323 322 325 331 334 335 336 334 331 326 324 326 327 326 328 331 334 337 338 338
Wind_Speed
17 17 17 18 17 16 15 16 16 15 13 12 12 12 12 12 12 13 13 12 11 11 11 11 9 8 6 4 3 1 3 5 9 10 12 11 10 9 7 8 8 8 7 8 8 9 9 10 10 9 9 8 8 8 8 8 8 8 8 8 8 8 7 7 7 7 7 8 8 9 9 10 10 9 8 7 6 6 6 7 7 7 8 8 9
17 17 17 17 17 16 15 15 15 14 13 12 12 12 12 12 12 12 11 9 8 9 10 11 7 6 8 8 6 4 4 7 9 12 13 11 10 10 8 9 9 9 9 9 10 10 11 10 10 9 8 8 8 9 9 9 9 8 8 8 8 7 7 7 7 7 8 8 8 9 9 10 11 10 9 8 8 8 7 7 8 7 8 8 9
17 17 17 17 16 16 15 15 14 13 12 12 13 13 13 13 13 11 9 9 8 8 9 10 7 2 7 9 8 7 7 7 8 12 13 10 10 11 10 10 10 11 11 11 11 11 11 11 10 9 9 9 10 9 9 9 9 8 8 7 7 7 7 7 6 6 7 7 8 8 9 9 9 9 9 9 9 9 8 8 8 9 9 9 10
17 16 16 16 15 14 15 14 13 13 12 12 12 12 13 13 12 11 10 9 8 7 6 8 7 2 2 5 7 6 7 7 8 11 11 10 11 11 11 12 12 12 12 13 13 13 12 11 11 11 11 11 10 10 9 9 8 8 8 7 7 7 6 6 6 6 6 7 7 7 8 8 8 8 8 9 9 9 9 9 9 9 9 9 10
16 16 15 15 14 14 14 13 13 12 12 12 11 12 13 12 12 12 11 9 8 8 6 6 5 3 3 2 5 4 5 5 9 9 7 8 10 10 12 13 14 14 14 16 16 16 15 13 13 13 12 11 11 10 10 9 9 9 9 8 8 7 7 7 6 7 7 7 7 7 7 7 7 8 8 8 9 9 9 9 9 9 9 9 10
14 14 15 14 14 13 14 13 12 13 12 12 12 13 13 12 13 13 12 9 8 6 4 4 5 4 5 3 4 5 5 5 7 6 4 7 7 8 9 10 13 15 16 17 18 18 17 16 15 13 12 11 11 11 11 11 11 11 11 11 11 10 10 10 9 9 9 9 9 9 8 8 8 8 9 9 9 10 10 10 10 10 9 9 10
13 13 14 14 14 14 14 13 12 13 13 13 13 13 13 12 12 12 11 9 6 4 3 5 5 4 6 5 1 4 6 6 3 4 4 5 4 6 7 8 11 13 14 15 15 16 16 17 16 15 13 11 11 11 12 13 13 13 14 14 14 14 14 13 13 13 12 12 12 11 11 10 10 10 10 11 11 12 12 12 12 11 11 11 12
13 13 13 14 14 14 14 14 14 13 12 12 13 13 12 11 10 10 9 7 6 7 8 8 6 7 9 6 5 7 6 5 2 3 4 3 4 6 7 8 10 11 12 11 12 12 13 14 15 15 15 12 11 11 11 13 14 14 14 15 15 16 16 16 16 16 15 15 14 14 13 12 11 11 12 12 12 13 13 13 13 13 13 13 14
13 14 13 13 13 13 14 14 14 12 11 11 12 13 12 10 10 9 9 9 8 9 10 10 9 10 10 7 6 7 6 6 5 1 4 4 6 7 8 8 9 10 10 10 10 10 11 12 12 14 15 14 11 11 12 12 13 14 14 14 15 16 16 17 17 17 16 16 16 16 15 14 13 12 12 12 13 13 13 13 13 13 14 14 15
13 13 12 13 13 13 13 13 12 11 10 9 10 12 12 12 11 10 11 9 9 10 10 9 9 9 8 6 5 5 6 6 6 2 2 4 7 8 9 9 9 10 10 9 9 9 10 11 11 12 13 13 13 12 13 13 13 14 14 14 15 16 17 17 17 17 17 17 17 16 16 15 15 14 13 13 13 14 14 14 14 13 14 14 16
12 12 11 12 13 13 13 12 11 10 10 10 10 10 11 12 12 12 12 10 11 11 9 7 6 9 7 7 7 8 8 7 6 2 3 4 6 8 9 9 9 10 9 9 9 7 7 8 9 10 10 11 12 12 12 13 13 14 15 15 16 16 17 17 17 17 17 17 17 17 17 16 16 16 15 14 14 14 14 14 14 14 14 14 15
12 12 11 11 12 12 12 11 11 10 11 10 11 12 12 13 12 13 12 11 11 9 7 8 9 9 8 7 7 9 11 8 7 5 3 3 4 8 9 7 6 7 6 7 8 7 7 6 7 9 10 11 12 13 12 12 13 14 15 15 16 16 16 17 17 17 17 17 17 17 17 17 17 17 16 16 15 15 15 15 15 15 15 15 15
14 12 11 10 10 9 9 9 9 9 10 10 11 13 13 13 13 12 11 9 8 7 8 9 10 8 5 7 9 10 12 8 7 6 4 3 3 6 7 5 4 4 4 3 4 6 7 5 6 9 10 11 12 13 12 13 13 14 15 16 16 16 16 16 16 17 17 18 18 18 18 18 17 17 17 16 16 15 15 15 15 16 15 15 16
13 12 10 9 9 9 9 9 9 9 9 9 11 12 12 12 12 11 10 9 8 10 12 11 10 8 6 8 9 11 12 9 9 9 6 5 3 4 3 2 3 3 2 2 3 5 5 4 6 9 9 11 13 14 13 14 14 15 16 16 16 16 16 16 16 17 18 18 19 19 19 19 18 17 17 17 17 16 16 16 16 16 16 16 16
13 12 12 12 12 11 11 10 9 9 10 11 11 11 12 13 12 11 9 9 10 10 11 9 9 9 7 7 8 10 10 10 13 12 10 8 5 5 3 3 4 3 2 5 6 6 4 5 7 9 9 10 11 12 13 13 13 14 15 15 15 16 16 16 16 16 17 18 19 19 20 20 19 18 17 16 16 16 16 16 16 16 16 16 16
15 14 14 14 14 12 11 11 10 11 12 12 12 12 13 13 12 11 8 8 10 10 7 6 7 10 9 5 5 7 6 9 14 14 13 12 9 6 4 5 4 4 5 7 7 7 6 6 8 7 9 9 8 9 9 10 11 11 13 14 14 15 16 17 17 17 17 18 18 19 20 21 21 20 19 17 16 15 16 16 16 17 17 17 17
15 14 13 14 14 13 13 12 12 13 13 12 12 12 13 13 12 11 10 9 11 10 8 7 9 9 5 4 5 5 3 6 11 10 11 15 14 8 3 4 5 5 6 6 5 5 5 7 8 7 8 9 8 9 9 9 10 11 11 12 13 15 16 17 18 18 18 18 18 19 21 22 21 21 20 19 17 15 15 15 16 17 18 18 18
14 13 12 12 12 13 14 14 14 14 13 12 12 13 13 13 11 11 11 11 11 11 9 9 10 7 5 5 5 3 1 3 8 9 7 13 17 11 4 1 4 5 5 5 4 3 5 7 7 6 8 10 9 10 11 11 12 13 12 12 13 14 16 17 18 18 18 18 19 20 23 23 21 20 20 19 18 16 15 15 16 17 18 19 20
13 12 11 11 11 13 14 15 15 14 12 12 12 13 13 12 11 12 11 11 12 11 9 9 10 7 6 7 6 5 5 4 7 9 9 12 17 14 6 3 2 3 3 4 3 4 5 7 6 4 6 8 9 11 12 13 14 15 15 14 13 14 15 16 18 19 18 18 20 22 24 24 21 20 19 19 18 17 16 16 16 17 18 19 20
12 12 11 11 12 12 14 14 14 12 12 12 11 12 12 11 12 12 11 11 11 10 8 8 9 7 6 7 6 6 6 6 6 6 8 10 12 15 9 2 1 1 1 2 1 3 4 6 6 4 5 7 10 12 13 13 14 15 16 15 15 16 15 17 19 19 18 18 21 23 23 22 21 20 19 19 18 18 17 17 17 17 18 18 20
12 12 11 11 11 11 12 13 13 12 12 11 10 10 10 11 13 12 10 11 12 11 9 7 8 8 7 6 6 6 6 6 5 4 4 6 9 15 12 3 2 5 2 2 6 7 5 3 3 2 3 6 11 14 15 14 14 15 16 16 16 16 16 18 19 19 18 19 21 23 22 21 21 22 20 19 19 18 18 18 17 17 17 18 19
12 12 11 11 11 11 12 12 12 12 11 10 9 9 9 10 11 11 11 11 12 12 9 8 9 9 9 8 7 6 5 5 3 2 2 4 8 10 9 5 4 7 4 2 4 7 7 5 2 1 2 6 12 15 16 15 16 16 15 14 14 15 17 18 19 20 19 19 20 21 20 20 22 23 22 20 19 19 19 19 18 18 18 18 18
12 11 11 11 11 11 11 10 10 11 10 9 9 9 9 9 10 10 10 11 12 10 8 9 11 11 10 9 8 6 4 4 2 2 2 2 4 6 6 4 2 4 6 5 2 4 4 5 6 4 4 8 13 15 15 16 17 15 12 12 13 16 18 19 20 22 21 18 19 19 18 19 21 24 24 22 20 20 20 19 19 19 18 18 18
13 12 11 12 11 11 11 10 10 10 10 9 9 8 8 9 9 9 8 9 9 8 8 11 13 11 9 7 6 5 4 3 2 1 3 0 3 4 4 5 4 1 3 5 5 3 2 2 6 6 7 11 13 14 16 16 15 12 11 13 15 17 18 19 21 24 20 16 15 16 17 19 21 24 25 23 22 21 20 20 20 19 19 19 19
13 13 12 12 11 10 10 10 10 10 10 9 8 8 8 8 8 8 8 8 7 7 8 11 10 7 6 6 4 5 4 3 1 1 2 1 3 4 4 5 5 2 1 3 6 5 4 5 7 7 9 12 14 14 14 14 14 12 13 15 16 18 19 20 23 23 17 13 14 15 17 18 19 23 24 24 24 22 21 21 21 20 20 19 20
13 13 12 12 11 10 9 10 9 9 10 10 9 9 8 7 7 7 7 7 7 7 7 8 8 4 6 7 5 5 5 2 0 1 2 4 4 5 6 6 6 6 5 4 6 6 6 6 8 10 12 13 14 14 12 14 14 13 13 15 18 18 19 21 23 18 13 12 14 15 17 18 18 21 23 24 25 23 21 22 23 22 21 20 20
12 12 13 12 10 10 10 10 10 9 10 10 9 10 9 8 8 7 7 7 6 6 6 7 7 4 6 8 5 5 6 2 1 2 0 4 6 7 7 6 7 8 8 7 7 6 5 6 6 8 11 13 13 12 12 15 14 12 14 17 19 17 18 22 19 14 13 15 14 15 18 18 18 20 21 23 25 23 22 25 25 23 21 21 20
12 12 12 10 9 10 11 10 10 9 9 10 9 9 9 8 9 8 7 7 6 6 6 7 7 6 6 6 5 6 7 4 3 2 2 3 6 7 6 4 5 6 7 8 9 8 8 7 7 6 6 8 11 11 13 15 14 13 16 18 17 16 19 20 15 13 16 16 14 17 19 17 17 20 20 21 24 24 23 26 28 25 22 21 21
12 12 11 9 9 10 10 10 11 10 9 10 10 10 10 9 8 7 7 8 7 6 6 6 7 8 6 3 2 4 5 4 4 4 4 5 6 7 6 5 5 6 9 10 10 10 10 10 10 10 9 9 10 12 14 16 16 16 17 17 16 17 18 16 15 15 16 16 17 18 17 15 18 21 20 20 23 24 23 25 28 27 25 24 23
13 14 14 13 12 10 10 10 10 10 9 10 10 10 10 9 9 9 8 8 7 7 7 6 7 8 8 6 5 5 5 5 4 3 3 4 4 5 7 6 5 7 10 12 13 11 10 9 10 11 12 11 10 12 14 14 14 15 16 15 16 17 15 14 16 16 14 15 17 16 14 16 18 19 19 20 22 23 23 23 26 27 26 26 25
12 14 15 16 16 13 11 11 10 9 10 10 10 10 10 10 10 10 9 7 6 6 6 7 6 7 7 8 9 9 9 8 7 6 5 4 4 4 4 4 5 7 9 11 12 11 10 10 10 10 11 11 9 10 11 11 12 13 15 14 15 15 14 14 17 17 14 15 16 15 15 17 18 19 20 20 20 21 21 22 25 25 25 25 24
13 13 13 14 15 14 12 13 11 10 10 10 10 10 10 11 10 10 9 8 8 7 7 8 8 7 7 9 9 9 10 10 10 10 9 7 5 4 4 5 5 6 7 9 11 11 11 12 14 13 12 11 9 10 11 12 12 14 13 12 13 14 14 15 16 16 14 14 15 15 16 17 20 22 20 18 18 19 20 22 24 24 23 23 22
14 15 14 12 12 13 13 14 12 9 9 10 10 10 10 11 11 10 10 9 7 7 8 9 10 9 8 9 8 7 8 9 8 8 10 9 6 5 7 8 8 8 8 10 11 12 12 13 16 16 12 11 11 11 12 13 13 13 12 12 14 15 14 15 15 15 15 14 13 14 16 19 21 20 17 17 20 20 21 23 23 23 22 20 18
14 15 15 12 11 11 12 13 12 9 8 8 9 9 9 11 11 10 10 9 7 6 7 7 8 9 9 9 9 8 7 6 3 3 5 7 6 6 6 5 6 7 8 8 8 11 12 14 16 15 13 12 12 10 11 12 13 13 14 14 15 15 14 14 15 16 19 20 18 16 19 21 19 18 18 19 21 22 23 24 22 21 19 16 16
13 12 12 12 11 11 11 11 11 11 10 10 10 10 10 10 10 10 10 10 8 8 8 7 7 8 9 9 10 8 6 4 2 3 4 5 7 8 6 4 6 8 9 8 9 11 14 15 15 14 13 12 11 11 11 12 14 14 14 14 15 15 14 14 15 16 18 22 22 21 22 20 18 18 20 20 22 24 24 22 18 16 15 14 15
12 11 11 12 12 12 12 13 13 13 14 14 12 12 12 10 9 9 10 10 9 8 7 7 7 7 7 7 7 6 5 5 5 6 6 7 8 8 8 7 9 10 10 9 10 11 13 14 13 12 13 12 12 11 12 13 14 14 14 15 16 16 15 13 13 13 15 20 23 23 22 22 22 23 24 24 23 21 19 17 14 14 14 14 16
13 12 12 12 13 13 13 15 16 16 16 15 13 12 12 11 9 8 9 10 10 10 8 6 6 6 6 6 6 6 6 6 7 8 7 7 7 7 8 8 8 8 9 9 9 10 11 13 13 12 12 12 12 11 11 14 14 14 16 16 15 15 14 12 10 12 16 21 23 23 23 25 28 29 29 25 20 18 16 14 13 14 15 15 17
16 15 14 14 16 16 14 14 15 15 14 14 12 11 11 11 11 9 9 10 10 10 10 8 8 6 5 5 6 6 6 6 6 7 6 6 7 8 8 7 7 8 9 9 9 9 10 11 12 13 12 13 12 10 11 13 14 14 15 15 14 13 11 11 12 16 20 22 23 24 25 28 30 30 28 23 18 17 16 16 16 17 17 17 17
18 17 15 14 16 16 13 13 13 13 13 13 12 12 12 12 11 10 10 10 9 10 10 8 7 7 7 7 7 7 9 10 8 6 6 7 8 9 7 6 6 7 7 8 9 9 10 11 12 13 13 13 13 11 11 12 12 13 15 16 16 14 13 15 18 21 22 22 24 25 27 29 30 29 26 21 18 17 17 17 18 20 20 18 17
17 18 17 15 14 14 14 12 12 12 12 12 12 12 12 12 12 12 11 10 10 10 10 8 7 8 8 8 8 9 10 10 8 7 7 7 8 8 7 7 8 9 10 11 12 11 11 11 12 12 13 13 13 11 11 12 13 14 15 16 18 19 20 20 21 22 23 25 26 27 28 30 31 28 24 20 18 18 17 16 17 18 19 18 18
12 15 19 18 16 15 14 12 12 13 13 12 13 12 11 11 12 12 11 11 11 11 10 9 9 9 8 7 7 8 9 7 6 7 8 8 7 8 8 9 11 12 13 13 12 11 10 10 10 11 12 13 12 13 13 13 14 15 16 18 20 21 22 22 22 23 25 28 29 29 30 31 31 27 23 20 20 20 19 16 14 15 17 19 19
10 13 16 18 18 16 14 12 13 14 14 14 14 13 12 12 12 11 10 10 10 10 10 9 9 8 8 7 6 7 7 7 5 6 7 9 9 8 9 12 13 12 12 11 10 10 10 10 10 11 13 13 12 13 14 15 16 18 19 20 21 21 23 26 27 26 27 29 30 31 31 30 28 26 23 21 21 20 20 18 15 15 17 19 18
11 11 13 14 14 14 13 13 13 14 15 15 14 13 13 12 12 11 10 9 8 8 8 7 6 5 5 5 6 7 8 8 8 8 9 9 8 8 10 11 11 10 10 10 10 10 10 10 11 11 13 13 13 14 16 18 19 21 21 21 21 23 26 29 31 31 29 30 31 32 31 27 24 24 23 21 21 20 20 19 17 17 17 16 16
14 13 14 15 15 15 15 15 16 17 17 16 14 13 14 13 12 10 10 10 8 5 5 5 4 4 5 6 8 9 9 9 9 9 9 9 9 9 10 11 11 10 10 10 10 9 9 11 11 11 12 13 13 14 17 19 21 22 23 22 23 25 28 29 31 32 30 29 29 30 28 24 23 24 22 21 21 21 20 20 19 18 16 15 15
19 19 19 19 19 19 18 18 19 18 18 17 14 13 14 14 13 10 10 11 9 7 7 7 8 8 8 9 10 10 10 9 9 9 9 10 10 10 11 11 12 10 9 9 10 12 12 13 13 13 12 13 14 15 17 20 21 23 24 25 25 26 28 29 29 29 27 25 26 27 26 24 23 23 22 22 22 23 22 20 18 17 15 13 14
22 23 22 21 21 21 19 18 17 16 16 16 15 13 14 14 13 11 11 11 12 12 11 11 11 12 12 12 12 12 12 11 10 10 11 11 11 11 11 12 12 12 11 12 14 15 15 14 14 14 13 13 15 16 18 20 22 23 24 25 26 27 28 27 26 24 23 22 23 25 25 23 23 23 23 24 24 24 22 19 15 14 13 13 14
22 23 23 23 23 23 22 20 17 16 16 16 16 15 15 14 14 13 12 12 13 14 14 12 12 13 13 13 13 14 14 13 13 13 13 12 12 13 13 13 13 13 14 15 16 17 17 16 16 15 15 15 16 16 17 19 20 22 23 24 25 25 24 23 22 22 21 20 20 21 23 23 23 24 24 24 24 23 20 17 16 15 16 15 15
25 24 23 24 24 24 24 23 21 20 19 18 18 17 16 15 15 15 15 15 16 16 16 15 15 15 14 15 14 15 15 15 15 14 13 12 13 14 15 14 14 13 15 17 18 18 18 18 17 16 16 16 17 18 18 19 19 20 20 21 20 20 21 21 21 21 20 20 19 20 22 23 23 24 24 24 23 22 20 20 20 20 20 18 16
27 26 25 25 26 25 24 23 23 22 21 21 20 19 18 17 17 17 17 18 18 18 17 17 17 18 17 17 16 16 16 16 15 14 13 13 14 15 15 15 14 15 16 18 18 17 17 16 15 15 15 16 17 18 17 17 17 17 17 17 16 17 19 20 20 21 20 18 17 19 21 22 22 24 25 24 22 21 21 22 21 21 21 19 18
26 28 28 28 27 26 25 24 23 23 22 22 21 20 19 18 18 19 20 20 19 18 17 17 17 18 17 17 17 17 16 16 16 16 16 16 16 17 17 16 16 16 17 16 15 14 14 13 12 11 11 12 13 13 13 13 13 13 14 14 14 15 17 17 18 19 18 16 15 18 20 20 21 23 26 26 23 20 21 22 21 21 21 20 19
29 31 31 29 28 27 26 26 25 24 23 23 22 21 20 19 19 20 21 21 20 19 18 18 18 17 17 17 17 17 17 17 17 17 17 17 17 17 17 17 16 14 13 12 11 11 10 8 7 6 7 8 9 9 10 10 11 12 13 12 12 13 14 14 16 17 17 16 15 17 18 19 21 23 26 28 26 23 22 22 22 21 20 20 20
Wind_Direction
139 141 141 141 139 138 136 133 131 132 133 131 129 126 125 126 119 110 106 103 100 96 101 108 87 72 99 131 155 205 325 50 68 57 46 42 47 52 56 61 63 65 64 65 64 63 62 62 61 60 63 66 67 66 64 63 60 57 54 49 43 37 29 23 17 9 3 356 350 345 343 342 341 341 339 336 332 338 354 345 329 322 316 313 314
137 139 140 140 139 138 135 132 131 133 135 134 129 125 125 127 121 113 109 103 99 99 108 125 116 66 77 84 84 75 49 70 74 55 43 42 51 54 58 64 67 66 65 64 63 63 63 62 64 65 68 66 64 62 59 56 53 51 47 43 38 32 26 20 15 11 7 1 359 355 352 351 349 350 352 350 347 349 351 341 336 337 333 329 324
137 138 139 138 139 139 135 133 135 135 134 134 129 124 126 127 125 117 109 105 106 105 111 142 161 83 72 68 56 63 63 63 66 48 39 48 55 55 63 68 69 69 68 68 66 66 66 66 68 68 69 66 64 61 58 56 53 52 49 45 41 35 29 23 20 18 17 14 10 7 5 2 359 1 3 3 1 359 360 359 359 358 355 350 344
143 143 141 141 145 143 139 140 139 135 135 134 127 128 132 128 126 118 111 110 100 95 105 149 174 186 105 62 38 61 66 50 49 43 41 57 58 59 72 72 72 72 71 73 70 68 67 67 68 67 67 67 68 66 63 63 61 60 58 55 52 45 40 33 32 30 31 31 25 21 17 13 12 15 15 12 9 7 9 10 7 5 4 359 355
148 150 149 144 147 147 145 145 140 137 138 136 127 128 131 128 125 117 116 116 103 112 121 141 170 199 186 72 39 74 85 49 42 40 43 55 59 71 78 74 73 73 75 76 73 70 68 68 68 68 70 71 73 74 74 75 73 73 70 68 66 61 56 51 46 44 43 42 39 36 30 26 26 25 24 20 15 14 16 16 13 11 10 6 1
148 154 155 149 148 152 153 148 142 143 142 139 134 130 130 129 128 123 124 121 112 123 127 146 176 196 190 179 53 80 118 100 54 31 24 39 63 86 78 74 77 76 79 77 71 69 67 68 69 70 74 76 78 81 82 82 81 80 78 76 73 70 66 61 57 54 50 48 45 43 41 39 37 33 30 27 26 26 27 26 22 20 19 16 10
147 150 153 153 154 157 158 151 145 147 144 142 142 138 134 133 131 127 124 118 113 117 111 141 161 145 156 180 98 102 129 123 67 356 341 3 55 85 78 87 85 78 80 73 64 66 65 64 63 64 67 73 79 82 84 83 82 81 79 78 75 71 68 64 60 57 54 51 49 47 45 43 40 38 35 33 33 33 33 32 28 26 25 21 14
143 146 148 152 155 159 158 152 150 151 147 143 142 139 135 134 129 122 123 123 123 126 120 126 139 136 142 147 120 125 136 140 120 18 6 4 48 67 79 98 90 80 80 69 59 63 67 63 57 54 54 59 69 75 79 80 79 79 77 76 73 69 65 61 58 55 52 50 48 47 45 43 40 37 37 36 35 34 34 32 28 25 22 18 12
143 146 148 151 152 156 155 151 154 153 146 142 138 136 133 129 124 122 133 139 133 131 129 128 133 135 136 133 125 132 150 171 176 59 28 51 66 64 65 80 85 82 79 71 68 70 72 70 59 53 50 52 61 69 74 76 75 75 73 71 68 65 60 56 54 51 48 46 44 43 42 40 37 34 34 33 31 31 31 29 26 23 19 15 10
147 147 148 152 151 155 156 149 149 146 142 136 129 129 128 128 128 132 140 142 139 134 131 133 149 155 134 126 147 151 144 158 187 236 33 74 78 74 62 61 72 76 73 70 74 80 81 75 65 60 55 54 62 68 69 69 69 68 65 64 60 57 54 50 48 45 43 41 39 37 36 34 32 29 26 25 24 24 24 22 21 19 16 12 9
151 153 149 149 148 154 157 148 143 144 142 131 127 129 131 135 136 137 138 138 137 130 121 110 150 184 155 131 162 168 149 148 170 172 85 89 88 86 72 59 62 65 65 64 65 73 79 77 69 65 61 57 59 61 62 61 60 60 57 55 52 49 46 44 43 40 37 35 34 32 30 28 26 23 19 16 14 14 14 14 13 13 12 9 5
155 161 155 150 148 150 151 147 147 151 146 137 138 140 140 141 140 139 138 138 135 129 126 107 118 161 158 154 175 168 162 159 158 149 102 92 94 91 80 60 56 54 47 41 41 44 51 68 75 68 64 63 60 56 56 57 53 52 52 49 46 44 41 40 38 36 34 31 29 27 25 23 21 18 14 10 6 4 4 4 4 4 4 3 360
154 160 155 149 147 146 148 150 152 152 149 145 141 140 142 144 145 144 137 134 131 125 129 114 119 144 148 168 177 161 162 170 177 171 133 123 118 96 80 49 54 62 46 21 24 41 43 62 83 75 68 67 69 66 60 59 55 51 49 47 44 41 37 36 34 33 30 27 25 23 21 19 15 13 10 7 3 359 358 357 357 357 358 358 355
156 154 151 154 155 153 153 152 147 142 144 144 138 140 147 146 144 142 127 122 121 125 134 128 133 144 128 146 164 160 163 178 193 191 167 146 138 117 94 31 61 69 69 82 77 63 42 42 72 77 76 71 72 72 67 62 58 54 50 46 42 37 32 30 29 28 26 23 20 17 16 14 11 8 5 3 0 357 355 354 354 354 355 356 354
162 157 158 165 166 163 159 153 148 142 142 144 142 145 149 145 141 134 123 120 116 120 135 142 148 158 153 145 154 165 175 187 190 193 186 160 145 140 104 49 72 86 110 93 74 70 52 43 57 65 73 74 70 69 67 59 54 52 47 40 35 28 22 19 18 20 20 19 15 11 9 8 7 5 1 358 356 355 355 353 354 354 356 356 356
166 168 164 163 164 165 164 158 153 150 150 150 151 153 151 148 144 130 122 123 118 114 114 129 157 170 182 188 182 187 202 204 195 201 201 182 171 159 91 54 68 89 104 97 79 80 73 59 61 62 61 60 55 52 53 46 41 43 36 28 25 18 14 10 6 7 9 11 10 7 4 2 1 0 358 355 351 351 353 353 354 355 356 357 357
163 166 161 160 160 161 163 158 152 152 152 152 156 160 155 153 147 129 126 126 120 120 109 115 153 162 173 199 199 198 219 211 190 191 203 201 195 181 126 66 65 80 98 102 106 101 73 58 63 63 50 43 34 27 27 24 22 25 22 18 15 10 7 5 0 357 358 2 4 3 1 358 356 355 354 353 349 346 348 350 351 352 353 354 355
160 159 157 159 157 156 158 155 152 153 153 154 156 158 155 153 145 129 130 130 122 126 121 124 147 139 108 126 133 109 83 174 160 145 162 193 193 183 185 155 72 74 95 99 108 91 60 62 66 58 46 41 30 20 18 11 6 7 6 3 2 359 358 359 358 353 350 354 357 357 357 355 353 352 351 351 348 345 342 344 345 346 347 348 349
157 157 156 155 153 153 155 152 153 157 158 156 153 153 153 153 146 136 134 133 125 124 127 133 142 127 109 128 121 87 80 107 135 133 127 156 180 189 200 193 100 45 76 100 87 53 50 64 70 59 44 37 23 14 10 3 356 354 352 348 347 347 348 351 353 350 347 351 355 355 355 354 353 352 350 349 348 346 343 341 341 341 342 344 345
158 157 159 153 151 151 152 154 157 163 164 158 151 148 153 158 154 145 141 140 131 123 128 138 136 129 134 148 140 108 95 101 115 132 124 125 162 183 185 159 354 324 124 133 330 345 21 54 72 69 36 18 9 4 359 356 352 344 341 340 338 339 343 348 351 349 348 352 355 355 354 355 356 356 353 350 349 348 346 344 342 341 341 342 343
161 160 163 155 152 151 152 155 156 160 164 159 150 142 144 156 157 152 148 145 139 132 134 143 137 134 139 135 128 121 112 112 113 127 130 100 122 157 166 153 252 223 201 321 295 285 305 16 72 95 18 358 358 355 351 349 345 338 336 335 336 341 347 350 350 349 349 350 352 353 355 358 2 2 358 353 352 351 349 347 345 343 343 343 343
164 161 165 157 155 154 153 157 155 158 164 157 148 140 141 150 153 154 155 152 148 144 145 150 143 135 129 113 109 122 115 103 109 143 144 101 114 147 164 152 171 194 201 313 296 283 281 265 241 218 296 330 343 347 348 345 339 334 331 332 339 349 353 351 351 349 346 346 348 352 355 359 5 7 3 358 355 354 352 350 348 347 347 346 344
169 162 164 161 159 156 154 156 155 157 161 154 147 145 145 148 151 154 159 160 156 154 157 154 144 136 128 117 110 108 85 64 81 202 228 105 128 167 192 191 167 176 195 206 239 334 323 247 251 276 290 313 330 337 341 340 337 334 332 339 346 351 351 349 351 349 345 345 348 351 355 357 3 7 5 2 358 358 356 354 352 350 351 350 347
175 169 168 167 164 163 161 157 155 154 152 151 153 152 145 144 149 154 159 164 162 160 166 155 143 139 134 123 123 119 88 60 74 256 268 292 152 177 204 228 240 238 219 229 245 293 1 277 276 290 296 309 324 330 334 339 344 342 342 350 351 348 346 345 347 347 346 350 352 352 354 355 0 4 6 4 1 0 359 357 356 354 354 353 352
177 174 174 172 167 167 165 159 157 155 154 155 159 158 149 145 152 155 158 166 168 163 166 160 149 150 154 139 138 151 136 118 124 285 268 197 186 199 217 227 225 232 260 270 278 275 278 289 289 292 297 306 317 322 332 344 351 346 342 350 351 345 341 340 344 346 350 358 357 355 355 353 357 2 6 7 3 2 1 0 359 357 357 356 356
177 177 180 174 170 170 166 164 162 159 162 166 169 168 160 157 160 160 162 167 172 168 163 163 158 157 168 159 143 156 159 142 106 154 210 221 229 233 237 238 236 240 242 255 279 285 292 296 291 292 293 298 309 320 336 348 346 340 341 349 348 343 338 338 343 347 354 356 352 353 351 348 353 359 3 5 4 2 3 3 360 358 358 357 358
173 177 179 173 174 179 174 174 170 166 170 172 176 178 171 168 166 166 170 166 171 179 170 166 166 155 170 177 172 170 181 205 78 92 154 246 247 243 244 254 253 250 248 243 246 256 274 289 294 298 295 296 306 320 338 347 344 339 344 348 346 342 336 336 341 350 352 348 347 349 346 344 350 355 358 1 3 3 4 4 2 358 356 356 357
173 172 176 176 186 190 184 185 180 174 176 176 181 182 178 180 177 174 177 170 167 178 178 182 183 160 152 176 198 198 200 209 203 204 251 253 252 249 250 269 275 276 275 262 256 256 255 265 284 302 305 307 312 316 329 341 341 338 341 341 341 339 333 334 344 352 352 352 350 345 344 344 348 351 352 356 360 1 1 3 2 360 358 357 355
179 175 182 189 198 197 192 193 186 182 185 181 184 188 186 188 184 183 187 178 174 178 177 182 181 164 155 169 200 201 196 186 190 226 252 254 261 258 252 265 291 306 304 293 289 282 270 273 287 294 295 299 306 312 324 332 331 329 331 330 331 330 328 336 350 351 351 352 347 344 344 346 348 350 350 351 355 356 354 357 360 359 358 359 357
189 187 190 194 203 205 197 194 186 184 190 188 187 189 187 188 185 187 196 191 184 184 183 184 178 171 174 184 200 206 194 177 175 207 248 263 278 260 238 246 285 303 303 303 304 302 296 294 297 301 300 296 301 313 324 328 328 327 323 320 323 326 331 345 350 347 349 346 344 349 351 347 349 351 351 350 351 350 348 351 355 355 354 355 356
197 198 195 196 206 209 198 196 196 193 192 190 192 189 185 193 191 186 198 206 199 195 199 199 186 179 187 198 211 218 217 216 208 200 204 229 278 286 249 243 275 290 296 301 304 311 321 318 318 324 318 308 309 317 320 322 323 318 315 320 330 337 344 344 337 334 335 334 337 347 351 349 349 346 346 349 349 347 345 347 350 349 348 349 350
192 199 205 205 208 207 198 199 206 209 200 192 195 192 187 199 199 189 197 208 206 208 214 209 196 194 211 226 231 227 225 229 225 217 217 218 232 275 290 283 287 295 305 309 307 316 330 329 326 331 329 320 318 317 315 315 311 307 313 327 335 335 333 330 330 333 330 323 328 345 353 349 341 339 342 349 349 346 344 343 344 342 340 340 341
191 199 211 213 208 202 198 204 210 208 202 199 200 197 192 200 207 201 204 213 215 218 221 217 213 212 217 231 245 243 238 241 236 229 229 219 219 270 289 283 283 289 296 302 306 313 323 323 320 326 332 328 326 325 322 323 322 320 325 332 330 327 325 330 342 354 354 347 347 354 352 342 338 340 346 347 345 341 338 336 334 332 331 333 335
203 206 211 212 205 197 195 205 209 203 210 217 209 204 200 200 209 213 213 220 230 234 232 228 227 225 224 235 251 257 253 249 247 251 229 207 217 273 298 292 276 275 280 287 296 303 306 307 311 321 331 333 339 342 339 340 342 339 337 343 347 345 343 347 354 0 2 359 357 354 345 340 343 347 347 343 336 330 329 331 330 330 331 333 335
212 210 209 208 204 200 195 196 200 203 223 232 217 215 219 210 210 216 216 221 230 234 234 238 239 236 236 243 254 261 255 233 260 309 276 227 232 253 272 282 267 265 273 281 287 289 292 298 308 321 332 339 345 347 348 353 352 346 346 357 5 2 356 353 351 353 353 350 348 346 341 342 347 345 339 333 325 323 328 335 338 339 341 340 340
217 212 207 204 204 207 199 194 198 205 220 231 225 220 226 224 218 216 215 223 234 238 235 234 236 237 239 243 254 266 264 243 247 262 261 262 261 250 251 264 264 263 269 274 279 282 289 299 310 324 334 338 340 345 356 1 359 358 358 360 359 356 353 347 343 347 345 339 338 337 338 343 347 343 338 331 326 329 338 346 351 352 352 349 343
208 211 211 207 208 214 208 202 207 210 216 226 227 222 225 228 228 225 222 227 237 244 248 246 243 246 249 256 262 267 272 262 243 239 245 261 266 259 261 267 264 267 275 278 281 285 292 302 311 323 332 333 336 351 2 354 345 347 351 352 349 346 344 338 334 338 335 330 330 332 336 342 344 343 341 339 339 346 351 355 358 355 351 346 340
200 208 214 210 208 215 219 214 215 216 215 222 225 224 225 228 230 229 228 231 234 237 242 245 246 246 250 265 271 268 275 283 267 252 252 255 260 268 276 274 265 269 278 283 285 288 295 300 306 317 327 332 337 352 357 344 336 337 339 338 336 336 333 323 319 324 326 325 327 330 335 339 340 341 342 342 345 353 358 2 3 358 350 343 338
205 209 213 209 208 217 225 226 224 220 218 222 225 223 221 225 230 230 230 234 236 236 242 246 244 244 243 253 264 264 263 269 272 265 257 256 262 272 283 286 279 277 283 293 299 303 308 310 312 318 324 327 331 337 337 331 330 332 329 324 324 323 316 310 312 318 323 324 325 328 332 335 336 338 340 339 343 349 357 4 4 359 353 345 339
215 212 211 212 216 221 225 228 229 227 222 221 223 223 220 222 228 232 233 235 237 242 248 251 249 250 249 250 258 262 260 261 265 264 263 266 268 272 286 299 299 297 297 301 306 311 314 316 318 321 321 323 326 326 320 317 315 315 313 312 314 312 308 308 312 318 322 324 324 326 330 332 333 335 336 337 340 343 351 3 3 355 347 341 336
226 215 212 214 220 223 224 226 229 232 230 224 223 225 222 221 227 234 238 238 241 246 249 252 254 253 252 257 266 270 269 265 265 267 274 283 280 274 284 297 302 301 297 296 300 306 311 314 318 323 324 328 332 329 325 325 319 311 308 307 308 309 310 311 313 318 323 325 325 326 329 332 333 334 334 334 336 338 344 353 354 346 340 337 336
228 223 216 214 218 224 229 233 231 231 232 229 227 227 225 225 229 235 241 243 245 250 253 258 263 259 253 257 273 283 278 267 263 270 282 289 288 280 279 285 292 294 292 290 293 300 307 314 320 325 326 330 335 332 329 325 316 310 309 310 311 314 316 317 318 323 327 327 325 325 329 333 334 334 335 334 333 335 338 339 337 339 341 337 336
227 230 221 213 217 226 234 239 235 231 233 233 230 228 228 228 225 228 238 244 246 254 258 261 269 271 262 258 268 277 276 268 263 259 258 262 266 268 268 274 281 284 286 290 295 301 310 313 316 318 318 321 324 323 317 309 306 307 309 312 314 317 320 321 322 325 329 327 323 323 328 335 335 333 335 336 336 338 339 335 331 334 337 334 334
219 220 220 216 220 226 227 229 229 230 236 238 235 233 232 228 223 226 238 245 248 254 257 260 267 271 268 262 260 264 267 272 270 260 250 250 258 264 266 272 276 277 282 292 293 294 298 298 299 301 302 304 306 305 301 299 300 305 309 312 313 315 318 321 321 322 325 324 321 322 327 334 333 331 334 337 337 336 335 333 332 332 327 324 329
209 212 216 216 217 218 216 219 227 232 237 240 241 241 236 229 226 228 235 242 246 246 248 255 257 260 267 268 268 272 276 278 273 263 260 264 267 269 273 278 280 276 278 285 285 287 291 292 295 298 298 297 297 294 294 296 300 303 306 310 311 313 316 317 318 320 323 323 323 323 325 330 331 330 334 336 334 333 333 333 334 333 326 323 326
204 209 212 211 212 215 217 220 227 232 237 240 243 243 238 233 232 232 233 236 240 245 250 253 251 252 255 259 266 276 280 279 276 272 271 271 269 269 275 281 282 277 275 280 285 290 292 292 295 300 300 299 298 296 296 298 300 302 305 308 310 312 314 315 317 319 322 325 325 323 324 331 336 335 337 339 338 339 338 336 338 339 335 333 329
211 211 214 215 217 221 226 230 231 230 233 240 244 244 241 238 238 238 236 233 235 244 252 254 252 251 253 257 265 273 277 280 283 280 274 270 269 271 275 277 277 275 276 281 286 289 290 291 294 299 300 299 297 295 296 298 300 302 304 307 309 311 312 315 318 322 327 330 329 327 329 337 343 342 342 345 347 348 350 351 354 355 351 346 338
228 224 222 224 227 230 234 236 235 233 235 239 243 243 242 241 240 239 238 237 238 245 251 252 250 250 253 256 261 268 273 278 282 280 272 269 270 271 271 272 274 273 273 277 281 284 286 288 291 294 296 295 293 293 296 300 301 302 303 304 307 310 314 320 326 332 338 341 340 337 336 340 344 342 342 346 351 356 2 6 6 6 4 1 357
234 234 232 232 234 237 237 237 236 236 239 241 241 241 239 239 241 242 241 242 244 247 251 252 250 250 254 258 261 266 270 273 275 275 273 274 276 274 273 274 275 274 273 276 279 281 281 283 287 291 292 291 292 296 301 304 305 305 307 309 314 319 324 329 333 335 341 346 345 339 337 339 343 342 341 343 349 357 3 5 5 6 7 8 9
235 237 236 234 235 237 238 238 237 237 239 241 242 241 239 239 241 244 246 247 247 249 251 249 247 250 255 260 264 267 268 269 270 270 272 277 280 279 279 279 280 280 280 281 282 281 281 283 285 287 286 287 293 302 306 308 309 312 316 319 323 326 329 334 337 339 346 355 349 340 338 342 346 347 345 345 349 356 360 359 359 1 2 4 7
233 236 236 235 235 236 237 239 239 239 240 242 242 241 242 244 245 246 247 248 248 249 250 247 245 249 254 259 264 267 267 268 269 271 276 281 284 286 288 288 286 284 284 286 288 289 290 287 280 274 278 287 296 303 306 309 314 322 325 326 327 331 337 345 349 351 357 3 357 348 346 348 350 352 351 349 348 350 354 358 359 360 1 2 2